Date String (YYYY-MM-DD hh:mm:ss) UTC,Instrument flags,Ambient pressure (hPa),Sample flow (lpm),Bypass flow (lpm),Sample temperature (°C),Ambient temperature (°C),ASC tube jacket temperature (°C),LED temperature (°C),Box temperature (°C),Sample RH (%),Span deviation,Mass concentration (μg/m³),Mass concentration (μg/m³),Mass concentration (μg/m³)
DateTimeUTC,F1_M11,P_M11,Q1_M11,Q2_M11,T1_M11,T2_M11,T3_M11,T4_M11,T5_M11,U1_M11,ZSPAN_M11,X0_M11,X2_M11,X1_M11
2022-12-10 15:00:00,,0827.7,5.02,0.00,22.3,21.0,00.0,31.1,24.1,09.9,0000.0,0008.97,0003.46,0002.85
2022-12-10 15:01:00,,0827.7,5.01,0.00,22.3,21.0,00.0,31.1,24.1,09.9,0000.0,0009.34,0003.44,0002.84
2022-12-10 15:02:00,,0827.7,4.99,0.00,22.3,21.0,00.0,31.1,24.1,09.8,0000.0,0010.14,0003.48,0002.85
2022-12-10 15:03:00,,0827.7,4.99,0.00,22.3,21.0,00.0,31.1,24.1,09.8,0000.0,0010.74,0003.52,0002.85
2022-12-10 15:04:00,,0827.7,5.01,0.00,22.3,21.0,00.0,31.1,24.1,09.8,0000.0,0010.89,0003.49,0002.85
2022-12-10 15:05:00,,0827.7,5.02,0.00,22.2,20.9,00.0,31.0,24.1,09.9,0000.0,0010.73,0003.46,0002.83
2022-12-10 15:06:00,,0827.7,5.01,0.00,22.2,20.9,00.0,31.0,24.1,09.9,0000.0,0010.83,0003.47,0002.84
2022-12-10 15:07:00,,0827.6,4.98,0.00,22.2,20.9,00.0,31.0,24.0,09.9,0000.0,0010.98,0003.47,0002.84
2022-12-10 15:08:00,,0827.7,4.99,0.00,22.2,20.9,00.0,31.0,24.0,10.1,0000.0,0010.09,0003.48,0002.84
2022-12-10 15:09:00,,0827.7,5.03,0.00,22.2,20.9,00.0,31.0,24.0,10.3,0000.0,0010.07,0003.49,0002.83
2022-12-10 15:10:00,,0827.7,4.99,0.00,22.2,20.9,00.0,31.0,24.0,10.2,0000.0,0009.70,0003.46,0002.84
2022-12-10 15:11:00,,0827.7,4.98,0.00,22.2,20.9,00.0,31.0,24.0,10.4,0000.0,0009.34,0003.46,0002.86
2022-12-10 15:12:00,,0827.6,5.00,0.00,22.3,21.7,00.0,31.0,24.2,10.8,0000.0,0009.22,0003.48,0002.90
2022-12-10 15:13:00,,0827.6,5.02,0.00,22.4,22.5,00.0,31.1,24.4,10.5,0000.0,0008.74,0003.48,0002.93
2022-12-10 15:14:00,,0827.5,5.01,0.00,22.4,22.3,00.0,31.1,24.4,10.2,0000.0,0008.20,0003.51,0002.96
2022-12-10 15:15:00,,0827.6,5.01,0.00,22.4,21.9,00.0,31.1,24.4,10.1,0000.0,0008.14,0003.57,0003.01
2022-12-10 15:16:00,,0827.5,4.99,0.00,22.4,21.7,00.0,31.1,24.3,10.0,0000.0,0008.60,0003.64,0003.06
2022-12-10 15:17:00,,0827.5,4.99,0.00,22.4,21.6,00.0,31.2,24.3,09.8,0000.0,0008.62,0003.66,0003.10
2022-12-10 15:18:00,,0827.5,4.99,0.00,22.4,21.5,00.0,31.2,24.3,10.2,0000.0,0008.59,0003.70,0003.13
2022-12-10 15:19:00,,0827.6,5.01,0.00,22.5,21.4,00.0,31.2,24.3,10.2,0000.0,0009.14,0003.73,0003.15
2022-12-10 15:20:00,,0827.6,5.02,0.00,22.5,21.4,00.0,31.2,24.3,10.1,0000.0,0009.17,0003.76,0003.18
2022-12-10 15:21:00,,0827.5,5.01,0.00,22.5,21.3,00.0,31.2,24.3,10.3,0000.0,0009.43,0003.82,0003.21
2022-12-10 15:22:00,,0827.5,4.99,0.00,22.4,21.3,00.0,31.2,24.3,10.2,0000.0,0009.46,0003.85,0003.22
2022-12-10 15:23:00,,0827.6,4.99,0.00,22.4,21.2,00.0,31.2,24.2,10.1,0000.0,0009.25,0003.84,0003.22
2022-12-10 15:24:00,,0827.7,4.99,0.00,22.4,21.2,00.0,31.2,24.2,10.2,0000.0,0008.99,0003.85,0003.23
2022-12-10 15:25:00,,0827.5,5.02,0.00,22.4,21.1,00.0,31.2,24.2,10.3,0000.0,0008.89,0003.85,0003.23
2022-12-10 15:26:00,,0827.5,5.01,0.00,22.4,21.1,00.0,31.2,24.1,10.3,0000.0,0008.77,0003.83,0003.23
2022-12-10 15:27:00,,0827.5,4.98,0.00,22.4,21.0,00.0,31.2,24.0,10.0,0000.0,0008.54,0003.80,0003.23
2022-12-10 15:28:00,,0827.5,4.99,0.00,22.3,21.0,00.0,31.2,24.0,10.0,0000.0,0008.35,0003.80,0003.24
2022-12-10 15:29:00,,0827.6,5.01,0.00,22.3,21.0,00.0,31.2,24.0,10.0,0000.0,0008.60,0003.82,0003.25
2022-12-10 15:30:00,,0827.6,5.02,0.00,22.3,21.0,00.0,31.2,24.0,10.1,0000.0,0008.40,0003.83,0003.26
2022-12-10 15:31:00,,0827.5,4.99,0.00,22.3,20.9,00.0,31.2,24.0,10.2,0000.0,0008.30,0003.87,0003.28
2022-12-10 15:32:00,,0827.6,4.99,0.00,22.3,20.9,00.0,31.2,24.0,10.3,0000.0,0008.36,0003.88,0003.28
2022-12-10 15:33:00,,0827.5,5.00,0.00,22.3,20.9,00.0,31.2,23.9,10.3,0000.0,0008.30,0003.86,0003.28
2022-12-10 15:34:00,,0827.5,5.02,0.00,22.3,20.8,00.0,31.2,23.9,10.4,0000.0,0008.32,0003.87,0003.29
2022-12-10 15:35:00,,0827.6,5.00,0.00,22.2,20.8,00.0,31.2,23.9,10.4,0000.0,0008.58,0003.89,0003.30
2022-12-10 15:36:00,,0827.6,4.99,0.00,22.2,20.8,00.0,31.2,23.9,10.2,0000.0,0008.84,0003.90,0003.32
2022-12-10 15:37:00,,0827.6,4.99,0.00,22.2,20.8,00.0,31.2,23.9,10.2,0000.0,0009.49,0003.92,0003.34
2022-12-10 15:38:00,,0827.5,5.00,0.00,22.2,20.8,00.0,31.1,23.9,10.3,0000.0,0009.49,0003.91,0003.35
2022-12-10 15:39:00,,0827.5,5.03,0.00,22.2,20.9,00.0,31.1,24.0,10.5,0000.0,0009.43,0003.89,0003.36
2022-12-10 15:40:00,,0827.5,5.01,0.00,22.2,20.9,00.0,31.1,24.0,10.2,0000.0,0009.44,0003.88,0003.36
2022-12-10 15:41:00,,0827.6,4.99,0.00,22.3,20.9,00.0,31.1,24.1,09.5,0000.0,0009.44,0003.88,0003.36
2022-12-10 15:42:00,,0827.7,4.99,0.00,22.3,21.0,00.0,31.1,24.1,09.4,0000.0,0009.31,0003.85,0003.35
2022-12-10 15:43:00,,0827.7,5.01,0.00,22.3,20.9,00.0,31.1,24.0,09.8,0000.0,0009.38,0003.86,0003.35
2022-12-10 15:44:00,,0827.6,5.02,0.00,22.3,20.9,00.0,31.1,24.0,10.2,0000.0,0009.68,0003.90,0003.33
2022-12-10 15:45:00,,0827.5,5.00,0.00,22.3,20.9,00.0,31.1,24.0,10.2,0000.0,0010.13,0003.91,0003.32
2022-12-10 15:46:00,,0827.5,4.98,0.00,22.3,21.0,00.0,31.1,24.1,10.1,0000.0,0009.89,0003.89,0003.31
2022-12-10 15:47:00,,0827.6,4.99,0.00,22.3,21.0,00.0,31.1,24.1,10.3,0000.0,0009.98,0003.89,0003.31
2022-12-10 15:48:00,,0827.7,5.01,0.00,22.3,21.0,00.0,31.1,24.1,10.1,0000.0,0009.55,0003.87,0003.29
2022-12-10 15:49:00,,0827.7,5.02,0.00,22.3,21.0,00.0,31.1,24.1,09.9,0000.0,0009.43,0003.86,0003.27
2022-12-10 15:50:00,,0827.7,4.99,0.00,22.3,21.0,00.0,31.1,24.2,09.6,0000.0,0009.66,0003.87,0003.26
2022-12-10 15:51:00,,0827.6,4.98,0.00,22.3,21.1,00.0,31.1,24.2,09.6,0000.0,0009.52,0003.87,0003.25
2022-12-10 15:52:00,,0827.5,4.99,0.00,22.3,21.1,00.0,31.1,24.2,09.5,0000.0,0009.13,0003.87,0003.24
2022-12-10 15:53:00,,0827.6,5.00,0.00,22.3,21.1,00.0,31.1,24.2,09.4,0000.0,0009.59,0003.88,0003.24
2022-12-10 15:54:00,,0827.7,5.02,0.00,22.4,21.1,00.0,31.1,24.2,09.6,0000.0,0009.71,0003.91,0003.23
2022-12-10 15:55:00,,0827.7,5.01,0.00,22.4,21.1,00.0,31.2,24.2,09.7,0000.0,0009.46,0003.87,0003.24
2022-12-10 15:56:00,,0827.6,4.99,0.00,22.4,21.2,00.0,31.2,24.2,09.6,0000.0,0009.89,0003.91,0003.25
2022-12-10 15:57:00,,0827.6,4.98,0.00,22.4,21.2,00.0,31.2,24.2,09.5,0000.0,0010.14,0003.93,0003.25
2022-12-10 15:58:00,,0827.5,5.00,0.00,22.4,21.2,00.0,31.2,24.2,09.3,0000.0,0010.29,0003.95,0003.25
2022-12-10 15:59:00,,0827.5,5.02,0.00,22.4,21.2,00.0,31.2,24.3,09.3,0000.0,0010.75,0003.99,0003.27
